Location: Home
(42.5358°N, 72.7383°W)
Time: 03:52:20
(UTC-04:00)

Explorer 11/Cluster Stage 4 - Pass Details

Date: 23 April 2025
Orbit: 463 x 1190 km, 28.8° (Epoch: 11 May)

Event Time Altitude Azimuth Distance (km) Brightness Sun altitude
Rises 07:49:55 0° 249° (WSW) 3,445 9.3 19.7°
Reaches altitude 10° 07:53:43 10° 229° (SW) 2,333 8.7 20.4°
Maximum altitude 07:56:48 15° 194° (SSW) 1,849 8.5 21.0°
Drops below altitude 10° 07:59:35 10° 159° (SSE) 2,056 9.1 21.5°
Sets 08:02:37 0° 135° (SE) 2,825 10.2 22.0°
